Date,Precip_in,Tmax_degC,Tmin_degC,Flow_in
2010-01-01,0.16929133858267714,-2.8,-6.7,0.08308422718480744
2010-01-02,0.03937007874015748,2.2,-4.4,0.07358888693511517
2010-01-03,0.031496062992125984,-3.9,-15.0,0.0609284332688588
2010-01-04,0.05905511811023623,-10.0,-15.0,0.058950237383506236
2010-01-05,0.0,-4.4,-11.1,0.05459820643573062
2010-01-06,0.0,-5.6,-10.0,0.05143309301916653
2010-01-07,0.0,-5.0,-9.4,0.052620010550378064
2010-01-08,0.011811023622047244,-1.1,-7.2,0.05341128890451908
2010-01-09,0.03937007874015748,-3.3,-12.2,0.047476701248461414
2010-01-10,0.0,-5.6,-16.1,0.045498505363108836
2010-01-11,0.0,-5.6,-15.6,0.047872340425531915
2010-01-12,0.0,-1.7,-7.2,0.04470722700896782
2010-01-13,0.0,-2.8,-15.6,0.044311587831897314
2010-01-14,0.0,-3.3,-13.3,0.041937752769474236
2010-01-15,0.0,0.6,-7.2,0.040750835238262714
2010-01-16,0.0,4.4,-1.1,0.04154211359240372
2010-01-17,0.0,3.9,-5.6,0.04035519606119218
2010-01-18,0.7007874015748031,1.7,-5.6,0.045894144540179364
2010-01-19,0.0,6.1,-2.2,0.047872340425531915
2010-01-20,0.16141732283464566,2.8,-2.8,0.047081062071390886
2010-01-21,0.0,2.8,-8.3,0.04154211359240372
2010-01-22,0.0,3.3,-12.2,0.03825830842271849
2010-01-23,0.0,4.4,-13.9,0.0357262176894672
2010-01-24,0.0,4.4,-13.9,0.03695269913838579
2010-01-25,0.44094488188976383,5.0,-11.7,0.4985053631088448
2010-01-26,1.6889763779527558,11.1,-0.6,0.5420256725866011
2010-01-27,0.031496062992125984,3.9,-3.3,0.21324951644100584
2010-01-28,0.0,1.1,-9.4,0.1444082996307368
2010-01-29,0.16929133858267714,0.0,-16.7,0.09693159838227536
2010-01-30,0.0,-11.7,-20.6,0.07635836117460876
2010-01-31,0.0,-7.2,-20.6,0.07635836117460876
2010-02-01,0.0,-4.4,-17.8,0.07477580446632671
2010-02-02,0.01968503937007874,-2.8,-11.7,0.07200633022683313
2010-02-03,0.07874015748031496,-2.2,-11.1,0.06567610339370493
2010-02-04,0.0,-1.1,-11.1,0.05934587656057675
2010-02-05,0.0,-1.7,-11.1,0.057367680675224186
2010-02-06,0.0,0.0,-10.6,0.054202567258660087
2010-02-07,0.0,-5.0,-13.9,0.04985053631088447
2010-02-08,0.0,-3.9,-12.8,0.047081062071390886
2010-02-09,0.0,-4.4,-10.6,0.047476701248461414
2010-02-10,0.0,1.7,-9.4,0.047081062071390886
2010-02-11,0.20078740157480315,-1.1,-5.0,0.045102866186038336
2010-02-12,0.0,2.2,-8.9,0.044311587831897314
2010-02-13,0.0,-0.6,-12.2,0.044311587831897314
2010-02-14,0.0,-1.7,-10.6,0.03956391770705117
2010-02-15,0.0,-1.1,-6.1,0.03750659398628451
2010-02-16,0.07874015748031496,1.7,-7.8,0.03782310532794092
2010-02-17,0.1811023622047244,-1.7,-6.1,0.03802092491647617
2010-02-18,0.0,-0.6,-6.1,0.037427466150870406
2010-02-19,0.011811023622047244,2.8,-4.4,0.03643836820819412
2010-02-20,0.0,1.7,-3.9,0.035765781607174266
2010-02-21,0.0,2.8,-3.3,0.035014067170740286
2010-02-22,0.0,0.6,-7.2,0.03303587128538773
2010-02-23,0.011811023622047244,7.8,-7.2,0.035686653771760155
2010-02-24,1.5196850393700787,0.0,-1.1,0.04272903112361527
2010-02-25,1.078740157480315,1.7,-0.6,0.10326182521540356
2010-02-26,1.921259842519685,3.9,-2.2,0.4628978371724986
2010-02-27,0.7598425196850394,0.0,-2.8,0.237383506242307
2010-02-28,0.03937007874015748,2.2,-2.8,0.1562774749428521
2010-03-01,0.05905511811023623,2.8,-2.2,0.12106558818357654
2010-03-02,0.0,5.6,-1.7,0.10998769122560226
2010-03-03,0.01968503937007874,8.9,-1.1,0.10919641287146124
2010-03-04,0.05118110236220472,2.8,-1.1,0.0985141550905574
2010-03-05,0.0,4.4,-1.1,0.09178828908035873
2010-03-06,0.0,7.2,-5.6,0.08822753648672411
2010-03-07,0.0,10.0,-6.7,0.09297520661157024
2010-03-08,0.0,8.9,-5.0,0.1151310005275189
2010-03-09,0.0,10.0,-2.2,0.13491295938104447
2010-03-10,0.0,9.4,-6.7,0.136099876912256
2010-03-11,0.0,13.3,-5.6,0.14717777387023034
2010-03-12,0.01968503937007874,6.7,1.1,0.16419025848426236
2010-03-13,0.01968503937007874,6.7,-0.6,0.3275892386143836
2010-03-14,2.6181102362204727,2.2,-0.6,1.1275716546509584
2010-03-15,0.2598425196850393,3.3,0.0,0.7358888693511517
2010-03-16,0.03937007874015748,3.9,1.1,0.4668542289432038
2010-03-17,0.0,14.4,-2.8,0.3995955688412168
2010-03-18,0.0,14.4,-2.8,0.443115878318973
2010-03-19,0.0,14.4,-1.1,0.4905925795674346
2010-03-20,0.0,18.3,-1.1,0.4787234042553192
2010-03-21,0.0,18.3,1.1,0.4391594865482679
2010-03-22,0.0,15.6,0.0,0.3651749604360823
2010-03-23,1.6417322834645667,8.3,1.7,1.1354844381923686
2010-03-24,0.0905511811023622,5.6,0.0,0.474767012484614
2010-03-25,0.0,10.0,-1.7,0.29000351679268505
2010-03-26,0.22834645669291334,13.3,-1.1,0.2627044135748197
2010-03-27,0.0,4.4,-8.3,0.2021716194830315
2010-03-28,0.0,6.1,-8.3,0.16735537190082644
2010-03-29,0.7086614173228346,6.7,-3.3,0.4391594865482679
2010-03-30,0.8188976377952756,10.0,2.8,0.9534904167399332
2010-03-31,1.7007874015748032,6.7,2.2,0.8189730965359592
2010-04-01,0.011811023622047244,9.4,5.0,0.3639880429048708
2010-04-02,0.0,21.1,2.8,0.2512308774397749
2010-04-03,0.0,23.3,3.3,0.19742394935818533
2010-04-04,0.0,25.6,3.9,0.15983822753648674
2010-04-05,0.0,20.0,0.6,0.136099876912256
2010-04-06,0.0,22.2,1.1,0.12304378406892914
2010-04-07,0.031496062992125984,19.4,3.9,0.1119658871109548
2010-04-08,0.0,29.4,5.0,0.09970107262176894
2010-04-09,0.2795275590551181,24.4,8.9,0.10998769122560226
2010-04-10,0.01968503937007874,10.6,0.6,0.10009671179883947
2010-04-11,0.0,12.2,-0.6,0.08545806224723054
2010-04-12,0.0,16.7,-0.6,0.07635836117460876
2010-04-13,0.0,13.3,-1.7,0.07121505187269211
2010-04-14,0.0,13.3,-2.2,0.0676542992790575
2010-04-15,0.0,17.2,-1.1,0.062115350800070336
2010-04-16,0.07086614173228346,18.3,1.1,0.06013715491471777
2010-04-17,0.37007874015748027,10.0,1.7,0.08347986636187796
2010-04-18,0.05118110236220472,7.2,-0.6,0.07358888693511517
2010-04-19,0.011811023622047244,9.4,1.7,0.06409354668542289
2010-04-20,0.0,13.3,1.7,0.05855459820643572
2010-04-21,0.0,18.9,0.6,0.05459820643573062
2010-04-22,0.0,19.4,2.8,0.05024617548795498
2010-04-23,0.0,20.0,1.7,0.047476701248461414
2010-04-24,0.0,15.6,2.2,0.0439159486548268
2010-04-25,0.0,20.0,5.0,0.043520309477756286
2010-04-26,0.07874015748031496,12.8,7.2,0.04470722700896782
2010-04-27,0.24015748031496065,15.0,5.6,0.05578512396694215
2010-04-28,0.0905511811023622,9.4,-0.6,0.052620010550378064
2010-04-29,0.011811023622047244,7.8,0.6,0.05024617548795498
2010-04-30,0.0,15.0,1.1,0.04312467030068577
2010-05-01,0.0,21.1,7.2,0.03956391770705117
2010-05-02,0.0,29.4,10.6,0.03675487954985054
2010-05-03,0.011811023622047244,30.6,15.0,0.03477668366449798
2010-05-04,0.031496062992125984,24.4,8.9,0.03477668366449798
2010-05-05,0.12992125984251968,22.8,4.4,0.03382714963952875
2010-05-06,0.0,25.0,8.3,0.030305960963601195
2010-05-07,0.011811023622047244,22.2,4.4,0.02757605064181466
2010-05-08,0.42913385826771655,18.3,5.0,0.054202567258660087
2010-05-09,0.5196850393700787,14.4,0.6,0.07002813434148057
2010-05-10,0.0,7.8,-0.6,0.04668542289432039
2010-05-11,0.0,11.7,-1.7,0.03750659398628451
2010-05-12,0.11811023622047245,13.3,1.7,0.03750659398628451
2010-05-13,0.05118110236220472,7.2,-0.6,0.0391287146122736
2010-05-14,0.38976377952755903,17.8,2.2,0.05974151573764727
2010-05-15,0.011811023622047244,23.9,7.2,0.05301564972744857
2010-05-16,0.0,18.3,3.9,0.04114647441533322
2010-05-17,0.0,20.0,3.3,0.03453930015825566
2010-05-18,0.0,23.9,5.6,0.031176367153156324
2010-05-19,0.6614173228346456,14.4,8.3,0.0676542992790575
2010-05-20,0.05118110236220472,13.3,8.3,0.05538948478987163
2010-05-21,0.0,26.1,10.0,0.04035519606119218
2010-05-22,0.0,27.8,8.9,0.032640232108317214
2010-05-23,0.0,23.3,9.4,0.028011253736592228
2010-05-24,0.0,23.9,10.6,0.026072621768946726
2010-05-25,0.0,26.7,13.3,0.02409442588359416
2010-05-26,0.0,31.1,15.6,0.02199753824512045
2010-05-27,0.16141732283464566,32.8,13.9,0.028327765078248638
2010-05-28,0.0,24.4,11.1,0.02662651661684544
2010-05-29,0.0,25.0,11.1,0.021918410409706348
2010-05-30,0.0,25.0,12.2,0.019663267100404436
2010-05-31,0.0,25.6,11.7,0.01744768770880957
2010-06-01,0.0,26.7,12.2,0.04035519606119218
2010-06-02,0.9015748031496064,26.1,11.1,0.0743801652892562
2010-06-03,0.0,27.2,13.3,0.036834007385264635
2010-06-04,0.0,26.7,13.3,0.02662651661684544
2010-06-05,0.05905511811023623,27.2,16.1,0.02251186917531212
2010-06-06,0.031496062992125984,28.3,16.7,0.02516265166168454
2010-06-07,0.42125984251968507,23.9,8.3,0.03730877439774925
2010-06-08,0.0,20.6,7.8,0.02563741867416916
2010-06-09,0.0,18.3,2.8,0.022867944434675568
2010-06-10,0.5905511811023622,17.8,6.7,0.031097239317742213
2010-06-11,0.0905511811023622,20.0,10.6,0.030820291893792862
2010-06-12,0.0,21.1,10.0,0.026943027958501845
2010-06-13,1.0118110236220472,16.7,12.8,0.12066994900650607
2010-06-14,0.011811023622047244,16.7,13.9,0.0708194126956216
2010-06-15,0.0,23.9,7.8,0.045498505363108836
2010-06-16,0.0,24.4,7.8,0.03295674344997362
2010-06-17,0.3818897637795276,20.0,10.6,0.035765781607174266
2010-06-18,0.0,20.0,10.6,0.03469755582908388
2010-06-19,0.0,27.8,11.7,0.02670564445225954
2010-06-20,0.0,28.3,15.0,0.0218788464919993
2010-06-21,0.0,28.9,15.0,0.01946544751186917
2010-06-22,0.0,27.8,12.2,0.017131176367153157
2010-06-23,0.20078740157480315,25.0,14.4,0.020058906277474947
2010-06-24,0.0,26.7,15.6,0.01954457534728328
2010-06-25,0.0,30.0,13.3,0.01914893617021276
2010-06-26,0.0,27.2,11.7,0.01550905574116406
2010-06-27,0.0,25.0,12.8,0.0135308598558115
2010-06-28,0.0,27.8,15.0,0.012660453666256372
2010-06-29,0.0,28.3,18.9,0.012106558818357658
2010-06-30,0.0,26.1,7.8,0.010721821698610868
2010-07-01,0.0,21.1,6.1,0.010247054686126252
2010-07-02,0.0,20.6,9.4,0.00949534024969228
2010-07-03,0.0,24.4,9.4,0.008585370142430104
2010-07-04,0.0,28.3,12.8,0.008189730965359592
2010-07-05,0.0,29.4,15.0,0.007596272199753825
2010-07-06,0.0,32.2,20.6,0.0075171443643397215
2010-07-07,0.0,33.9,20.0,0.007279760858097416
2010-07-08,0.0,34.4,18.9,0.007398452611218569
2010-07-09,0.0,28.9,17.2,0.007002813434148057
2010-07-10,0.0,28.9,20.0,0.0075171443643397215
2010-07-11,0.16141732283464566,23.3,14.4,0.00775452787058203
2010-07-12,0.0,29.4,13.9,0.007279760858097416
2010-07-13,0.0,30.6,15.6,0.006686302092491647
2010-07-14,0.1811023622047244,28.3,19.4,0.006330226833128187
2010-07-15,0.05905511811023623,24.4,18.3,0.006488482503956391
2010-07-16,0.0,28.3,17.2,0.006567610339370495
2010-07-17,0.031496062992125984,31.7,18.9,0.006409354668542289
2010-07-18,0.2598425196850393,31.1,16.7,0.007319324775804465
2010-07-19,0.0,27.8,15.6,0.007635836117460878
2010-07-20,0.05905511811023623,30.0,16.7,0.017605943379637768
2010-07-21,0.0,27.8,14.4,0.01285827325479163
2010-07-22,0.20078740157480315,29.4,14.4,0.009930543344469843
2010-07-23,0.0,26.7,13.3,0.010207490768419205
2010-07-24,0.7204724409448819,21.7,16.7,0.025043959908563392
2010-07-25,0.2992125984251969,29.4,21.7,0.027892561983471075
2010-07-26,0.0,27.2,11.1,0.015311236152628803
2010-07-27,0.0,26.1,12.8,0.010998769122560223
2010-07-28,0.0,28.9,12.2,0.008901881484086514
2010-07-29,0.0,29.4,13.9,0.007794091788289081
2010-07-30,0.0,27.2,10.0,0.006963249516441007
2010-07-31,0.0,24.4,8.9,0.006251098997714085
2010-08-01,0.0,25.0,9.4,0.005578512396694215
2010-08-02,0.0,25.6,14.4,0.005380692808158958
2010-08-03,0.0,27.2,13.9,0.005380692808158958
2010-08-04,0.0,27.2,17.8,0.005064181466502549
2010-08-05,0.0,31.1,20.0,0.005895023738350625
2010-08-06,0.1811023622047244,28.9,17.2,0.00957446808510638
2010-08-07,0.0,26.1,8.9,0.006804993845612801
2010-08-08,0.0,23.9,7.8,0.00534112889045191
2010-08-09,0.0,28.3,10.0,0.0046685422894320395
2010-08-10,0.0,30.6,17.8,0.004826797960260243
2010-08-11,0.0,30.0,18.3,0.004431158783189729
2010-08-12,0.0,28.9,13.9,0.0041542113592403715
2010-08-13,0.0,25.6,15.6,0.003956391770705117
2010-08-14,0.0,25.6,10.0,0.0038456128011253744
2010-08-15,0.0,26.1,10.6,0.003600316511341657
2010-08-16,0.3110236220472441,22.2,15.6,0.0070423773518551065
2010-08-17,0.7716535433070866,23.9,13.9,0.0219579743274134
2010-08-18,0.0,27.8,12.2,0.010603129945489714
2010-08-19,0.0,26.7,12.8,0.007398452611218569
2010-08-20,0.20866141732283466,28.9,13.9,0.00636979075083524
2010-08-21,0.0,24.4,7.8,0.005657640232108317
2010-08-22,0.0,23.3,9.4,0.006686302092491647
2010-08-23,1.279527559055118,19.4,15.0,0.03707139089150695
2010-08-24,0.20078740157480315,16.1,13.3,0.022037102162827504
2010-08-25,0.2519685039370079,18.9,14.4,0.015825567082820468
2010-08-26,0.05118110236220472,21.1,14.4,0.01357042377351855
2010-08-27,0.0,24.4,10.0,0.010603129945489714
2010-08-28,0.0,22.2,7.2,0.008664497977844205
2010-08-29,0.0,25.6,8.3,0.007438016528925621
2010-08-30,0.0,30.6,13.3,0.006528046421663443
2010-08-31,0.0,29.4,15.6,0.005736768067522421
2010-09-01,0.0,32.2,16.7,0.005222437137330754
2010-09-02,0.0,31.7,16.7,0.004787234042553191
2010-09-03,0.0,32.2,16.7,0.004431158783189729
2010-09-04,0.011811023622047244,28.3,16.7,0.004075083523826271
2010-09-05,0.05118110236220472,23.9,6.7,0.0041937752769474245
2010-09-06,0.0,20.0,4.4,0.0041542113592403715
2010-09-07,0.0,23.3,5.6,0.003877263935291015
2010-09-08,0.07086614173228346,28.9,16.1,0.003651749604360823
2010-09-09,0.0,24.4,12.2,0.0035053631088447328
2010-09-10,0.0,18.3,11.7,0.003418322489889221
2010-09-11,0.0,17.2,8.9,0.003378758572182169
2010-09-12,0.0,23.9,7.8,0.0033748021804114645
2010-09-13,0.05118110236220472,16.7,9.4,0.0032205029013539646
2010-09-14,0.0,21.1,8.3,0.003137418674169158
2010-09-15,0.011811023622047244,20.6,5.0,0.003109723931774222
2010-09-16,0.0,17.2,1.7,0.003070160014067171
2010-09-17,0.3503937007874016,20.0,2.8,0.0038970458941445405
2010-09-18,0.0,18.3,6.7,0.004272903112361526
2010-09-19,0.0,19.4,7.2,0.0037743977492526812
2010-09-20,0.0,22.2,7.8,0.0034499736240548623
2010-09-21,0.0,18.9,1.7,0.003141375065939864
2010-09-22,0.0,20.6,1.7,0.003101811148232812
2010-09-23,0.0,28.3,11.1,0.002911904343238966
2010-09-24,0.0,25.6,11.1,0.002761561455952172
2010-09-25,0.0,31.1,12.8,0.002729910321786531
2010-09-26,0.0,26.1,7.8,0.0025597854756462105
2010-09-27,0.05118110236220472,21.7,7.8,0.0031532442412519784
2010-09-28,0.9881889763779528,18.3,11.1,0.010049235097590996
2010-09-29,0.5118110236220472,21.7,13.9,0.010959205204853174
2010-09-30,0.0,23.9,13.9,0.07912783541410233
2010-10-01,3.9094488188976375,21.1,15.0,0.4352030947775629
2010-10-02,1.7598425196850394,15.6,5.0,0.1827852998065764
2010-10-03,0.0,16.7,1.7,0.0676542992790575
2010-10-04,0.011811023622047244,13.9,2.2,0.043520309477756286
2010-10-05,0.16929133858267714,13.9,7.2,0.033985405310356966
2010-10-06,0.3582677165354331,12.2,8.3,0.0818973096535959
2010-10-07,1.220472440944882,12.2,8.3,0.16735537190082644
2010-10-08,0.01968503937007874,15.6,7.2,0.09020573237207667
2010-10-09,0.0,20.6,8.9,0.05618076314401267
2010-10-10,0.0,16.7,-0.6,0.04154211359240372
2010-10-11,0.0,17.2,-0.6,0.03691313522067874
2010-10-12,0.011811023622047244,18.9,5.6,0.031651134165640936
2010-10-13,0.0,16.1,-0.6,0.02654738878143133
2010-10-14,0.0,17.2,-0.6,0.02405486196588711
2010-10-15,1.6811023622047243,15.0,-0.6,0.18318093898364693
2010-10-16,0.42913385826771655,7.8,3.3,0.1618164234218393
2010-10-17,0.0,12.2,1.7,0.0878318973096536
2010-10-18,0.0,16.1,1.7,0.06290662915421137
2010-10-19,0.0,12.2,-1.1,0.050641814665025486
2010-10-20,0.0,11.7,-1.7,0.045498505363108836
2010-10-21,0.0,13.9,-0.6,0.039959556884121686
2010-10-22,0.22047244094488191,12.2,0.0,0.040750835238262714
2010-10-23,0.03937007874015748,5.0,-0.6,0.03552839810093195
2010-10-24,0.011811023622047244,10.6,0.6,0.032442412519781964
2010-10-25,0.011811023622047244,10.0,4.4,0.031334622823984526
2010-10-26,0.011811023622047244,17.2,6.7,0.030108141375065938
2010-10-27,0.31889763779527563,22.2,12.2,0.04154211359240372
2010-10-28,0.3110236220472441,20.6,8.3,0.06488482503956391
2010-10-29,0.0,20.0,3.3,0.047081062071390886
2010-10-30,0.01968503937007874,8.3,-1.7,0.03948478987163707
2010-10-31,0.0,10.6,1.1,0.03588447336029541
2010-11-01,0.05905511811023623,8.9,-3.3,0.03173026200105504
2010-11-02,0.0,7.2,-3.9,0.02923773518551082
2010-11-03,0.0,7.8,-6.7,0.02749692280640056
2010-11-04,0.01968503937007874,9.4,-5.0,0.05341128890451908
2010-11-05,1.279527559055118,6.1,1.1,0.1768507121505187
2010-11-06,0.09842519685039368,8.3,-0.6,0.11433972217337787
2010-11-07,0.0,7.8,-2.8,0.07873219623703183
2010-11-08,0.20866141732283466,6.7,-2.8,0.07952347459117286
2010-11-09,0.1889763779527559,5.0,-0.6,0.08347986636187796
2010-11-10,0.0,10.6,1.1,0.07279760858097416
2010-11-11,0.0,12.8,-1.1,0.06132407244592932
2010-11-12,0.0,12.2,-1.1,0.05341128890451908
2010-11-13,0.0,16.1,-2.2,0.04985053631088447
2010-11-14,0.0,18.3,-1.7,0.046289783717249865
2010-11-15,0.0,12.8,-1.1,0.04826797960260243
2010-11-16,0.05905511811023623,7.2,3.9,0.045102866186038336
2010-11-17,1.3188976377952757,8.9,5.0,0.1546949182345701
2010-11-18,0.07874015748031496,12.2,3.3,0.12027430982943554
2010-11-19,0.0,8.9,-2.8,0.0818973096535959
2010-11-20,0.0,5.0,-3.9,0.0676542992790575
2010-11-21,0.0,9.4,-4.4,0.058158959029365215
2010-11-22,0.0,3.9,-4.4,0.05301564972744857
2010-11-23,0.031496062992125984,9.4,0.6,0.051037453842096014
2010-11-24,0.031496062992125984,11.7,0.6,0.047476701248461414
2010-11-25,0.0,4.4,-7.2,0.04312467030068577
2010-11-26,0.3582677165354331,3.3,-5.0,0.052620010550378064
2010-11-27,0.011811023622047244,6.1,-5.0,0.06448918586249341
2010-11-28,0.0,1.7,-7.8,0.05341128890451908
2010-11-29,0.0,4.4,-7.2,0.045894144540179364
2010-11-30,0.0,5.6,-7.2,0.04312467030068577
2010-12-01,0.4606299212598425,7.8,-1.1,0.4114647441533322
2010-12-02,1.8385826771653544,12.2,-2.2,0.4668542289432038
2010-12-03,0.0,2.8,-5.0,0.1859504132231405
2010-12-04,0.0,0.6,-4.4,0.13056092843326886
2010-12-05,0.0,1.1,-6.7,0.10365746439247406
2010-12-06,0.011811023622047244,-2.8,-7.2,0.08822753648672411
2010-12-07,0.0,-3.9,-6.7,0.07833655705996131
2010-12-08,0.0,-2.8,-8.3,0.06884121681026903
2010-12-09,0.0,-3.9,-11.7,0.06013715491471777
2010-12-10,0.0,-6.7,-17.2,0.05459820643573062
2010-12-11,0.03937007874015748,-6.7,-15.6,0.053806928081589586
2010-12-12,0.05118110236220472,3.9,-10.0,0.2334271144716019
2010-12-13,2.448818897637795,10.6,-1.1,0.6409354668542289
2010-12-14,0.3110236220472441,7.2,-11.7,0.2441093722525057
2010-12-15,0.0,-8.3,-13.9,0.14361702127659573
2010-12-16,0.01968503937007874,-8.3,-13.9,0.11433972217337787
2010-12-17,0.0,-2.8,-15.0,0.09970107262176894
2010-12-18,0.0,-2.8,-11.1,0.09653595920520486
2010-12-19,0.0,1.7,-12.2,0.09099701072621767
2010-12-20,0.0,-0.6,-11.7,0.08268858800773694
2010-12-21,0.0,-1.7,-8.9,0.07675400035167927
2010-12-22,0.0,-1.7,-5.6,0.06686302092491647
2010-12-23,0.0,0.0,-4.4,0.06013715491471777
2010-12-24,0.0,-1.7,-6.7,0.05538948478987163
2010-12-25,0.0,0.0,-11.1,0.05143309301916653
2010-12-26,0.0,-0.6,-10.0,0.046289783717249865
2010-12-27,0.7519685039370079,-3.9,-9.4,0.045894144540179364
2010-12-28,0.01968503937007874,-6.7,-12.2,0.047872340425531915
2010-12-29,0.0,-1.7,-11.1,0.05143309301916653
2010-12-30,0.0,0.0,-11.7,0.045894144540179364
2010-12-31,0.0,5.0,-11.7,0.045498505363108836
2011-01-01,0.0,10.0,-3.3,0.045894144540179364
2011-01-02,0.0,12.2,0.6,0.07002813434148057
2011-01-03,0.0,8.3,-6.1,0.07358888693511517
2011-01-04,0.0,-1.7,-11.1,0.05855459820643572
2011-01-05,0.0,0.6,-8.9,0.051037453842096014
2011-01-06,0.0,0.0,-11.1,0.04272903112361527
2011-01-07,0.0,-2.8,-12.8,0.03881220327061719
2011-01-08,0.2795275590551181,-4.4,-8.9,0.04312467030068577
2011-01-09,0.031496062992125984,-3.3,-7.8,0.04114647441533322
2011-01-10,0.0,-3.9,-9.4,0.041937752769474236
2011-01-11,0.0,-4.4,-13.9,0.0389704589414454
2011-01-12,0.9803149606299212,-2.2,-15.0,0.035211886759275536
2011-01-13,0.3307086614173228,-5.0,-9.4,0.041937752769474236
2011-01-14,0.0,-4.4,-17.8,0.0439159486548268
2011-01-15,0.0,-6.7,-17.8,0.04272903112361527
2011-01-16,0.031496062992125984,-2.8,-18.3,0.039524353789344116
2011-01-17,0.0,-1.1,-17.2,0.03833743625813258
2011-01-18,0.16141732283464566,-7.2,-18.3,0.03608229294883067
2011-01-19,0.8307086614173228,1.1,-10.6,0.047476701248461414
2011-01-20,0.05118110236220472,2.2,-7.2,0.04233339194654475
2011-01-21,0.3307086614173228,-4.4,-11.1,0.0389704589414454
2011-01-22,0.03937007874015748,-4.4,-14.4,0.037743977492526816
2011-01-23,0.0,-6.7,-21.1,0.03552839810093195
2011-01-24,0.0,-8.3,-25.0,0.03446017232284157
2011-01-25,0.20078740157480315,-12.2,-23.9,0.035014067170740286
2011-01-26,0.011811023622047244,-1.7,-15.6,0.03552839810093195
2011-01-27,0.37007874015748027,-1.1,-11.1,0.034183224898892216
2011-01-28,0.0,0.6,-15.0,0.03331281870933709
2011-01-29,0.05905511811023623,-1.1,-11.7,0.032244592931246714
2011-01-30,0.0,1.1,-12.8,0.030859855811499907
2011-01-31,0.0,-1.7,-14.4,0.02963337436258133
2011-02-01,0.09842519685039368,-3.9,-16.1,0.029079479514682607
2011-02-02,0.8385826771653543,-7.2,-11.7,0.031334622823984526
2011-02-03,0.5196850393700787,-3.9,-12.2,0.03465799191137682
2011-02-04,0.0,-3.3,-18.3,0.035172322841568494
2011-02-05,0.0,0.6,-18.3,0.032640232108317214
2011-02-06,0.4881889763779527,1.7,-10.0,0.046289783717249865
2011-02-07,0.0,1.7,-7.8,0.044311587831897314
2011-02-08,0.2913385826771653,2.2,-6.7,0.03853525584666784
2011-02-09,0.01968503937007874,0.6,-16.1,0.03465799191137682
2011-02-10,0.0,-2.8,-16.1,0.033629330050993486
2011-02-11,0.0,-5.0,-22.2,0.030701600140671706
2011-02-12,0.0,-3.9,-21.7,0.030701600140671706
2011-02-13,0.01968503937007874,-0.6,-13.3,0.031176367153156324
2011-02-14,0.0,5.6,-12.8,0.03299630736768068
2011-02-15,0.031496062992125984,11.1,-11.7,0.04154211359240372
2011-02-16,0.0,-4.4,-13.3,0.0357262176894672
2011-02-17,0.0,5.6,-12.8,0.036319676455072974
2011-02-18,0.0,13.3,-2.2,0.06607174257077546
2011-02-19,0.03937007874015748,14.4,-3.3,0.12660453666256374
2011-02-20,0.0,-2.8,-13.9,0.08387550553894849
2011-02-21,0.031496062992125984,-1.1,-13.3,0.06607174257077546
2011-02-22,0.011811023622047244,-1.7,-16.7,0.05657640232108317
2011-02-23,0.0,0.6,-16.7,0.054202567258660087
2011-02-24,0.0,5.0,-15.0,0.052620010550378064
2011-02-25,0.2992125984251969,3.9,-14.4,0.068049938456128
2011-02-26,0.9015748031496064,0.6,-6.1,0.09257956743449973
2011-02-27,0.2716535433070866,0.0,-6.1,0.06725866010198699
2011-02-28,0.03937007874015748,3.9,-5.6,0.07477580446632671
2011-03-01,0.5590551181102362,6.1,-6.1,0.1076138561631792
2011-03-02,0.0,1.7,-10.6,0.08031475294531386
2011-03-03,0.0,5.0,-20.6,0.068049938456128
2011-03-04,0.0,-3.3,-20.0,0.06290662915421137
2011-03-05,0.011811023622047244,1.7,-13.3,0.06132407244592932
2011-03-06,0.031496062992125984,11.1,-0.6,0.3327325479163003
2011-03-07,2.8188976377952755,8.9,0.0,1.4045190786003168
2011-03-08,0.03937007874015748,0.0,-9.4,0.443115878318973
2011-03-09,0.0,6.1,-7.8,0.2500439599085634
2011-03-10,0.0,2.2,-6.1,0.1918850008791982
2011-03-11,1.078740157480315,5.6,-1.7,0.7279760858097415
2011-03-12,0.33858267716535434,9.4,-1.1,0.4826797960260243
2011-03-13,0.031496062992125984,6.1,-1.1,0.29712502197995433
2011-03-14,0.0,3.9,-1.1,0.23065764023210836
2011-03-15,0.011811023622047244,3.3,-7.8,0.18871988746263407
2011-03-16,0.03937007874015748,6.7,-7.2,0.2389660629505891
2011-03-17,0.468503937007874,5.6,-1.1,0.3220502901353965
2011-03-18,0.011811023622047244,13.9,0.0,0.4668542289432038
2011-03-19,0.0,15.0,2.2,0.4193775276947424
2011-03-20,0.0,5.0,-7.2,0.25043959908563385
2011-03-21,0.0,7.2,-6.1,0.20335853701424295
2011-03-22,0.4803149606299213,2.8,-1.1,0.18871988746263407
2011-03-23,0.0,2.8,-3.9,0.16023386671355722
2011-03-24,0.01968503937007874,1.7,-4.4,0.1384737119746791
2011-03-25,0.0,4.4,-6.7,0.12304378406892914
2011-03-26,0.0,1.7,-10.0,0.10603129945489713
2011-03-27,0.0,0.6,-8.9,0.09416212414278176
2011-03-28,0.0,1.7,-8.3,0.08506242307016001
2011-03-29,0.0,3.9,-7.8,0.07912783541410233
2011-03-30,0.0,3.9,-5.0,0.07556708282046773
2011-03-31,0.0,10.6,-4.4,0.0818973096535959
2011-04-01,0.2716535433070866,5.6,-1.7,0.08901881484086514
2011-04-02,0.03937007874015748,5.0,-1.7,0.09653595920520486
2011-04-03,0.0,8.9,0.6,0.10088799015298047
2011-04-04,0.03937007874015748,10.6,0.6,0.1728943203798136
2011-04-05,0.8110236220472441,6.1,0.6,0.2654738878143133
2011-04-06,0.11023622047244096,10.6,-2.8,0.20335853701424295
2011-04-07,0.0,9.4,-3.3,0.15706875329699313
2011-04-08,0.0,11.1,-4.4,0.13926499032882012
2011-04-09,0.0,10.0,-3.9,0.12779145419377527
2011-04-10,0.0,16.1,-3.3,0.13056092843326886
2011-04-11,0.0,16.1,-1.7,0.1416388253912432
2011-04-12,0.03937007874015748,25.6,8.9,0.14717777387023034